Location: Tyler Bend Campground
(35.9875°N, 92.7606°W)
Time: 06:23:26
(UTC-05:00)

CZ-2C R/B - Visible Passes

Search period start: 31 October 2014 00:00
Search period end: 09 November 2014 23:00
Orbit: 668 x 787 km, 98.1° (Epoch: 31 October)

Date Brightness Start Highest point End Pass type
(mag) Time Alt. Az. Time Alt. Az. Time Alt. Az.
31 Oct 3.8 19:03:15 10° ESE 19:06:19 17° ENE 19:09:20 10° NNE visible
31 Oct 3.3 20:41:49 26° SSW 20:44:14 45° W 20:48:48 10° NNW visible
01 Nov 2.4 19:54:15 27° SE 19:56:41 55° ENE 20:01:19 10° N visible
01 Nov 5.2 21:33:43 12° WSW 21:35:12 13° W 21:37:25 10° WNW visible
02 Nov 3.7 18:06:38 12° ESE 18:09:25 18° ENE 18:12:35 10° NNE visible
02 Nov 3.5 19:46:06 34° SW 19:47:22 42° W 19:51:51 10° NNW visible
03 Nov 2.3 18:58:26 42° SE 18:59:48 60° ENE 19:04:26 10° N visible
03 Nov 5.3 20:37:53 12° W 20:38:21 12° W 20:40:04 10° WNW visible
04 Nov 3.6 18:10:44 16° E 18:12:30 19° ENE 18:15:49 10° NNE visible
04 Nov 3.6 19:50:12 38° WSW 19:50:30 38° W 19:54:53 10° NNW visible
05 Nov 2.2 19:02:28 61° ESE 19:02:54 65° ENE 19:07:33 10° N visible
05 Nov 5.4 20:41:55 10° W 20:41:55 10° W 20:42:28 10° W visible
06 Nov 3.5 18:14:43 20° E 18:15:35 21° ENE 18:19:02 10° NNE visible
06 Nov 3.8 19:54:10 34° W 19:54:10 34° W 19:57:54 10° NNW visible
07 Nov 2.2 19:06:24 66° NE 19:06:24 66° NE 19:10:39 10° N visible
08 Nov 3.4 18:18:36 22° ENE 18:18:40 22° ENE 18:22:14 10° NNE visible
08 Nov 4.1 19:58:03 27° WNW 19:58:03 27° WNW 20:00:55 10° NW visible
09 Nov 2.6 19:10:14 52° N 19:10:14 52° N 19:13:45 10° N visible
